World > North America > United States > Mississippi > Patrick  

Patrick, MS Hourly Weather Updates

Feedback E-mail the Weather

Quick WX

Patrick, MS Weather Maps

°F °C°F °C
Patrick Weather Map
UTC Time: 3/5/2024, 11:23
Your Time:

Patrick, MS Regional Weather

Expires:202403051200;;439507
ASUS44 KJAN 051110
RWRMS 

MISSISSIPPI HOURLY WEATHER ROUNDUP
NATIONAL WEATHER SERVICE JACKSON MS
500 AM CST TUE MAR 05 2024

NOTE: "FAIR: INDICATES FEW OR NO CLOUDS BELOW 12,000 FEET WITH NO
SIGNIFICANT WEATHER AND/OR OBSTRUCTIONS TO VISIBILITY.


MSZ003>006-009-014>017-022>024-029>033-037>039-051200-
NORTHEAST MISSISSIPPI
  
CITY           SKY/WX    TMP DP  RH WIND       PRES   REMARKS
ABERDEEN       CLOUDY    64  64 100 CALM      29.95R                  
COLUMBUS AFB   MOCLDY    64  62  95 E6        29.90R                  
CORINTH        HVY RAIN  63  63 100 S8        29.94R                  
GOLDN TRIANGLE CLOUDY    63  63 100 E7        29.93R                  
IUKA           CLOUDY    62  62 100 S8        29.96R                  
LOUISVILLE     CLOUDY    63  63 100 E3        29.93S FOG              
STARKVILLE     CLOUDY    63  63 100 E3        29.90S                  
TUPELO         CLOUDY    65  63  93 SE5       29.93R                  
$$


SKY/WX - Weather  TMP - Temperature  DP - Dew Point  RH - Humidity
WIND - Wind Direction/Speed PRES - Barometric Pressure VSB - Visibility
WCI - Wind Chill Index E13G22 Wind - East Wind 13 mph/Gusts of 22 mph

Trending Headlines

Trending Entertainment Headlines

Patrick Radar Loop

Use the map search tool if you want to place a location marker on the radar map...

Patrick Quick Facts

National Two Day Weather Forecast


E-mail the Patrick Weather Forecast

Voice your opinion or tell us about page issues...